| time (UTC) | temp C | wind direction | speed KPH | gust KPH | rain 1hr cm | rain 24hr cm | rain mn cm | humidity % | barometer mb |
| 20260903064003 | 18 | 200 | 0.0 | 3.2 | 0.00 | 0.00 | 0.00 | 52 | 1016.9 |
| 20260903063502 | 18 | 219 | 0.0 | 3.2 | 0.00 | 0.00 | 0.00 | 52 | 1017.0 |
| 20260903063004 | 18 | 234 | 0.0 | 3.2 | 0.00 | 0.00 | 0.00 | 54 | 1017.0 |
| 20260903062505 | 18 | 234 | 0.0 | 3.2 | 0.00 | 0.00 | 0.00 | 55 | 1017.1 |
| 20260903062005 | 18 | 162 | 0.0 | 3.2 | 0.00 | 0.00 | 0.00 | 56 | 1017.1 |
| 20260903061510 | 18 | 178 | 0.0 | 3.2 | 0.00 | 0.00 | 0.00 | 56 | 1017.1 |
| 20260903061007 | 18 | 220 | 0.0 | 3.2 | 0.00 | 0.00 | 0.00 | 56 | 1017.1 |
| 20260903060503 | 18 | 197 | 0.0 | 3.2 | 0.00 | 0.00 | 0.00 | 58 | 1017.1 |
| 20260903060003 | 18 | 163 | 0.0 | 3.2 | 0.00 | 0.00 | 0.00 | 1017.1 | |
| 20260903055504 | 18 | 144 | 0.0 | 3.2 | 0.00 | 0.00 | 0.00 | 60 | 1017.1 |
| 20260903055002 | 18 | 144 | 0.0 | 3.2 | 0.00 | 0.00 | 0.00 | 60 | 1017.0 |
| 20260903054503 | 18 | 125 | 0.0 | 3.2 | 0.00 | 0.00 | 0.00 | 60 | 1017.1 |
| 20260903054002 | 18 | 136 | 0.0 | 3.2 | 0.00 | 0.00 | 0.00 | 60 | 1016.9 |
| 20260903053504 | 18 | 136 | 0.0 | 3.2 | 0.00 | 0.00 | 0.00 | 60 | 1017.0 |
| 20260903053005 | 18 | 127 | 0.0 | 3.2 | 0.00 | 0.00 | 0.00 | 59 | 1017.1 |
| 20260903052503 | 18 | 56 | 0.0 | 0.0 | 0.00 | 0.00 | 0.00 | 59 | 1017.0 |
| 20260903052002 | 18 | 54 | 0.0 | 3.2 | 0.00 | 0.00 | 0.00 | 58 | 1017.0 |
| 20260903051506 | 18 | 54 | 0.0 | 3.2 | 0.00 | 0.00 | 0.00 | 1016.9 | |
| 20260903051002 | 18 | 55 | 0.0 | 3.2 | 0.00 | 0.00 | 0.00 | 1017.1 | |
| 20260903050503 | 18 | 76 | 0.0 | 3.2 | 0.00 | 0.00 | 0.00 | 1017.1 | |
| 20260903050019 | 18 | 76 | 0.0 | 3.2 | 0.00 | 0.00 | 0.00 | 59 | 1017.1 |
| 20260903045504 | 19 | 86 | 0.0 | 3.2 | 0.00 | 0.00 | 0.00 | 59 | 1017.2 |
| 20260903045003 | 19 | 28 | 0.0 | 3.2 | 0.00 | 0.00 | 0.00 | 58 | 1017.1 |
| 20260903044516 | 19 | 28 | 0.0 | 3.2 | 0.00 | 0.00 | 0.00 | 57 | 1016.9 |
| 20260903044003 | 19 | 11 | 0.0 | 3.2 | 0.00 | 0.00 | 0.00 | 57 | 1017.0 |
| 20260903043503 | 19 | 61 | 0.0 | 3.2 | 0.00 | 0.00 | 0.00 | 58 | 1017.2 |
| 20260903043003 | 19 | 75 | 0.0 | 3.2 | 0.00 | 0.00 | 0.00 | 56 | 1017.2 |
| 20260903042502 | 19 | 175 | 0.0 | 3.2 | 0.00 | 0.00 | 0.00 | 56 | 1017.2 |
| 20260903042007 | 19 | 192 | 0.0 | 3.2 | 0.00 | 0.00 | 0.00 | 56 | 1017.3 |
| 20260903041510 | 19 | 176 | 0.0 | 3.2 | 0.00 | 0.00 | 0.00 | 1017.5 | |
| 20260903041003 | 19 | 157 | 0.0 | 3.2 | 0.00 | 0.00 | 0.00 | 55 | 1017.6 |
| 20260903040502 | 20 | 168 | 0.0 | 3.2 | 0.00 | 0.00 | 0.00 | 55 | 1017.4 |
| 20260903040008 | 20 | 190 | 0.0 | 3.2 | 0.00 | 0.00 | 0.00 | 55 | 1017.2 |
| 20260903035503 | 20 | 181 | 0.0 | 3.2 | 0.00 | 0.00 | 0.00 | 54 | 1017.1 |
| 20260903035002 | 20 | 184 | 0.0 | 3.2 | 0.00 | 0.00 | 0.00 | 54 | 1017.1 |
| 20260903034506 | 20 | 184 | 1.6 | 3.2 | 0.00 | 0.00 | 0.00 | 53 | 1017.0 |
| 20260903034004 | 20 | 105 | 0.0 | 3.2 | 0.00 | 0.00 | 0.00 | 52 | 1017.0 |
| 20260903033507 | 21 | 73 | 0.0 | 3.2 | 0.00 | 0.00 | 0.00 | 52 | 1016.9 |
| 20260903033003 | 21 | 71 | 0.0 | 3.2 | 0.00 | 0.00 | 0.00 | 51 | 1016.8 |
| 20260903032504 | 21 | 113 | 0.0 | 3.2 | 0.00 | 0.00 | 0.00 | 50 | 1017.1 |
| 20260903032004 | 21 | 136 | 0.0 | 3.2 | 0.00 | 0.00 | 0.00 | 49 | 1017.2 |
| 20260903031506 | 21 | 217 | 0.0 | 4.8 | 0.00 | 0.00 | 0.00 | 48 | 1017.3 |
| 20260903031003 | 22 | 190 | 0.0 | 4.8 | 0.00 | 0.00 | 0.00 | 47 | 1017.3 |
| 20260903030506 | 22 | 159 | 0.0 | 3.2 | 0.00 | 0.00 | 0.00 | 47 | 1017.2 |
| 20260903030004 | 22 | 243 | 0.0 | 3.2 | 0.00 | 0.00 | 0.00 | 46 | 1017.1 |
| 20260903025503 | 22 | 243 | 0.0 | 3.2 | 0.00 | 0.00 | 0.00 | 46 | 1017.0 |
| 20260903025003 | 22 | 244 | 0.0 | 3.2 | 0.00 | 0.00 | 0.00 | 45 | 1016.9 |
| 20260903024504 | 22 | 229 | 0.0 | 6.4 | 0.00 | 0.00 | 0.00 | 45 | 1016.8 |
| 20260903024004 | 22 | 351 | 1.6 | 6.4 | 0.00 | 0.00 | 0.00 | 44 | 1016.8 |
| 20260903023503 | 23 | 13 | 1.6 | 4.8 | 0.00 | 0.00 | 0.00 | 45 | 1016.6 |
| 20260903023008 | 23 | 13 | 1.6 | 8.0 | 0.00 | 0.00 | 0.00 | 45 | 1016.6 |
| 20260903022504 | 23 | 40 | 3.2 | 8.0 | 0.00 | 0.00 | 0.00 | 44 | 1016.7 |
| 20260903022003 | 23 | 57 | 0.0 | 3.2 | 0.00 | 0.00 | 0.00 | 43 | 1016.8 |
| 20260903021505 | 23 | 210 | 0.0 | 3.2 | 0.00 | 0.00 | 0.00 | 42 | 1016.8 |
| 20260903021004 | 23 | 196 | 0.0 | 4.8 | 0.00 | 0.00 | 0.00 | 42 | 1016.5 |
| 20260903020506 | 24 | 34 | 1.6 | 4.8 | 0.00 | 0.00 | 0.00 | 40 | 1016.1 |
| 20260903020006 | 24 | 326 | 1.6 | 4.8 | 0.00 | 0.00 | 0.00 | 40 | 1015.9 |
| 20260903015506 | 24 | 19 | 0.0 | 1.6 | 0.00 | 0.00 | 0.00 | 40 | 1015.8 |
| 20260903015005 | 24 | 19 | 0.0 | 3.2 | 0.00 | 0.00 | 0.00 | 41 | 1015.9 |
| 20260903014507 | 24 | 19 | 0.0 | 3.2 | 0.00 | 0.00 | 0.00 | 40 | 1015.9 |
| 20260903014003 | 24 | 19 | 0.0 | 3.2 | 0.00 | 0.00 | 0.00 | 40 | 1015.9 |
| 20260903013503 | 24 | 18 | 0.0 | 3.2 | 0.00 | 0.00 | 0.00 | 39 | 1015.8 |
| 20260903013007 | 25 | 25 | 0.0 | 3.2 | 0.00 | 0.00 | 0.00 | 40 | 1015.6 |
| 20260903012504 | 25 | 25 | 0.0 | 3.2 | 0.00 | 0.00 | 0.00 | 39 | 1015.6 |
| 20260903012004 | 25 | 28 | 0.0 | 4.8 | 0.00 | 0.00 | 0.00 | 38 | 1015.6 |
| 20260903011507 | 25 | 55 | 1.6 | 4.8 | 0.00 | 0.00 | 0.00 | 38 | 1015.6 |
| 20260903011003 | 25 | 22 | 0.0 | 3.2 | 0.00 | 0.00 | 0.00 | 38 | 1015.6 |
| 20260903010505 | 26 | 18 | 0.0 | 3.2 | 0.00 | 0.00 | 0.00 | 39 | 1015.6 |
| 20260903010008 | 26 | 347 | 0.0 | 3.2 | 0.00 | 0.00 | 0.00 | 38 | 1015.4 |
| 20260903005504 | 26 | 342 | 0.0 | 3.2 | 0.00 | 0.00 | 0.00 | 36 | 1015.3 |
| 20260903005008 | 26 | 340 | 0.0 | 3.2 | 0.00 | 0.00 | 0.00 | 33 | 1015.4 |
| 20260903004507 | 27 | 338 | 0.0 | 3.2 | 0.00 | 0.00 | 0.00 | 32 | 1015.4 |
| 20260903004011 | 27 | 338 | 0.0 | 3.2 | 0.00 | 0.00 | 0.00 | 33 | 1015.4 |
| 20260903003504 | 27 | 319 | 0.0 | 3.2 | 0.00 | 0.00 | 0.00 | 32 | 1015.6 |
| 20260903003008 | 27 | 315 | 0.0 | 3.2 | 0.00 | 0.00 | 0.00 | 33 | 1015.6 |
| 20260903002507 | 27 | 315 | 0.0 | 3.2 | 0.00 | 0.00 | 0.00 | 32 | 1015.6 |
| 20260903002004 | 27 | 343 | 0.0 | 3.2 | 0.00 | 0.00 | 0.00 | 31 | 1015.6 |
| 20260903001508 | 27 | 283 | 0.0 | 3.2 | 0.00 | 0.00 | 0.00 | 30 | 1015.6 |
| 20260903001004 | 28 | 246 | 0.0 | 4.8 | 0.00 | 0.00 | 0.00 | 30 | 1015.4 |
| 20260903000507 | 28 | 272 | 1.6 | 9.7 | 0.00 | 0.00 | 0.00 | 29 | 1015.3 |
| 20260903000018 | 28 | 360 | 1.6 | 9.7 | 0.00 | 0.00 | 0.00 | 29 | 1015.2 |
| 20260902235507 | 28 | 254 | 1.6 | 6.4 | 0.00 | 0.00 | 0.00 | 29 | 1015.3 |
| 20260902235007 | 28 | 254 | 1.6 | 12.9 | 0.00 | 0.00 | 0.00 | 29 | 1015.3 |
| 20260902234514 | 28 | 265 | 4.8 | 12.9 | 0.00 | 0.00 | 0.00 | 28 | 1015.4 |
| 20260902234008 | 28 | 272 | 1.6 | 8.0 | 0.00 | 0.00 | 0.00 | 28 | 1015.4 |
| 20260902233507 | 28 | 292 | 1.6 | 14.5 | 0.00 | 0.00 | 0.00 | 29 | 1015.4 |
| 20260902233008 | 28 | 274 | 3.2 | 16.1 | 0.00 | 0.00 | 0.00 | 29 | 1015.5 |
| 20260902232507 | 28 | 207 | 3.2 | 16.1 | 0.00 | 0.00 | 0.00 | 28 | 1015.6 |
| 20260902232007 | 28 | 284 | 4.8 | 12.9 | 0.00 | 0.00 | 0.00 | 28 | 1015.8 |
| 20260902231521 | 28 | 317 | 3.2 | 8.0 | 0.00 | 0.00 | 0.00 | 27 | 1015.9 |
| 20260902231004 | 28 | 30 | 4.8 | 16.1 | 0.00 | 0.00 | 0.00 | 26 | 1015.9 |
| 20260902230506 | 28 | 180 | 4.8 | 16.1 | 0.00 | 0.00 | 0.00 | 25 | 1016.0 |
| 20260902230011 | 28 | 236 | 4.8 | 20.9 | 0.00 | 0.00 | 0.00 | 25 | 1016.0 |
| 20260902225508 | 28 | 241 | 3.2 | 25.7 | 0.00 | 0.00 | 0.00 | 24 | 1015.9 |
| 20260902225007 | 29 | 161 | 11.3 | 22.5 | 0.00 | 0.00 | 0.00 | 24 | 1015.9 |
| 20260902224510 | 30 | 247 | 11.3 | 17.7 | 0.00 | 0.00 | 0.00 | 24 | 1015.7 |
| 20260902224008 | 30 | 124 | 0.0 | 3.2 | 0.00 | 0.00 | 0.00 | 24 | 1015.5 |
| 20260902223509 | 31 | 110 | 0.0 | 3.2 | 0.00 | 0.00 | 0.00 | 24 | 1015.3 |
| 20260902223013 | 31 | 111 | 0.0 | 3.2 | 0.00 | 0.00 | 0.00 | 23 | 1015.1 |
| 20260902222509 | 31 | 212 | 0.0 | 3.2 | 0.00 | 0.00 | 0.00 | 22 | 1015.0 |
| 20260902222012 | 31 | 138 | 0.0 | 4.8 | 0.00 | 0.00 | 0.00 | 22 | 1015.0 |
| 20260902221516 | 31 | 156 | 0.0 | 4.8 | 0.00 | 0.00 | 0.00 | 21 | 1014.9 |
| 20260902221007 | 32 | 146 | 1.6 | 4.8 | 0.00 | 0.00 | 0.00 | 21 | 1014.9 |
| 20260902220508 | 32 | 171 | 0.0 | 8.0 | 0.00 | 0.00 | 0.00 | 21 | 1014.8 |
| 20260902220015 | 32 | 122 | 1.6 | 8.0 | 0.00 | 0.00 | 0.00 | 20 | 1015.0 |
| 20260902215508 | 32 | 139 | 1.6 | 9.7 | 0.00 | 0.00 | 0.00 | 22 | 1015.0 |
| 20260902215005 | 31 | 150 | 1.6 | 9.7 | 0.00 | 0.00 | 0.00 | 23 | 1015.0 |
| 20260902214510 | 31 | 352 | 3.2 | 9.7 | 0.00 | 0.00 | 0.00 | 22 | 1015.0 |
| 20260902214007 | 31 | 42 | 3.2 | 6.4 | 0.00 | 0.00 | 0.00 | 22 | 1015.1 |
| 20260902213507 | 31 | 157 | 1.6 | 11.3 | 0.00 | 0.00 | 0.00 | 22 | 1015.2 |
| 20260902213015 | 31 | 168 | 3.2 | 11.3 | 0.00 | 0.00 | 0.00 | 22 | 1015.2 |
| 20260902212506 | 31 | 136 | 3.2 | 11.3 | 0.00 | 0.00 | 0.00 | 23 | 1015.3 |
| 20260902212003 | 31 | 103 | 3.2 | 12.9 | 0.00 | 0.00 | 0.00 | 22 | 1015.3 |
| 20260902211511 | 31 | 92 | 4.8 | 12.9 | 0.00 | 0.00 | 0.00 | 24 | 1015.4 |
| 20260902211010 | 31 | 65 | 1.6 | 9.7 | 0.00 | 0.00 | 0.00 | 24 | 1015.4 |
| 20260902210507 | 31 | 141 | 1.6 | 4.8 | 0.00 | 0.00 | 0.00 | 23 | 1015.5 |
| 20260902210015 | 31 | 101 | 1.6 | 4.8 | 0.00 | 0.00 | 0.00 | 23 | 1015.7 |
| 20260902205508 | 31 | 48 | 0.0 | 4.8 | 0.00 | 0.00 | 0.00 | 22 | 1015.7 |
| 20260902205008 | 31 | 23 | 1.6 | 4.8 | 0.00 | 0.00 | 0.00 | 22 | 1016.0 |
| 20260902204512 | 31 | 87 | 1.6 | 11.3 | 0.00 | 0.00 | 0.00 | 22 | 1016.1 |
| 20260902204005 | 31 | 131 | 1.6 | 11.3 | 0.00 | 0.00 | 0.00 | 21 | 1016.3 |
| 20260902203506 | 31 | 153 | 1.6 | 11.3 | 0.00 | 0.00 | 0.00 | 21 | 1016.4 |
| 20260902203014 | 32 | 142 | 4.8 | 11.3 | 0.00 | 0.00 | 0.00 | 21 | 1016.4 |
| 20260902202508 | 32 | 209 | 1.6 | 6.4 | 0.00 | 0.00 | 0.00 | 21 | 1016.5 |
| 20260902202010 | 32 | 84 | 1.6 | 6.4 | 0.00 | 0.00 | 0.00 | 21 | 1016.6 |
| 20260902201514 | 32 | 101 | 0.0 | 6.4 | 0.00 | 0.00 | 0.00 | 22 | 1016.6 |
| 20260902201011 | 32 | 139 | 1.6 | 14.5 | 0.00 | 0.00 | 0.00 | 22 | 1016.8 |
| 20260902200510 | 32 | 61 | 3.2 | 14.5 | 0.00 | 0.00 | 0.00 | 22 | 1016.7 |
| 20260902200007 | 31 | 157 | 1.6 | 11.3 | 0.00 | 0.00 | 0.00 | 23 | 1016.8 |
| 20260902195507 | 31 | 181 | 3.2 | 11.3 | 0.00 | 0.00 | 0.00 | 22 | 1016.9 |
| 20260902195012 | 31 | 125 | 3.2 | 14.5 | 0.00 | 0.00 | 0.00 | 22 | 1017.0 |
| 20260902194513 | 31 | 159 | 1.6 | 14.5 | 0.00 | 0.00 | 0.00 | 23 | 1017.0 |
| 20260902194011 | 31 | 145 | 4.8 | 14.5 | 0.00 | 0.00 | 0.00 | 23 | 1017.1 |
| 20260902193510 | 31 | 74 | 3.2 | 11.3 | 0.00 | 0.00 | 0.00 | 23 | 1017.1 |
| 20260902193015 | 31 | 108 | 3.2 | 16.1 | 0.00 | 0.00 | 0.00 | 24 | 1017.3 |
| 20260902192510 | 31 | 84 | 4.8 | 16.1 | 0.00 | 0.00 | 0.00 | 25 | 1017.3 |
| 20260902192006 | 30 | 159 | 3.2 | 16.1 | 0.00 | 0.00 | 0.00 | 24 | 1017.3 |
| 20260902191512 | 30 | 53 | 4.8 | 16.1 | 0.00 | 0.00 | 0.00 | 25 | 1017.3 |
| 20260902191009 | 31 | 214 | 3.2 | 9.7 | 0.00 | 0.00 | 0.00 | 25 | 1017.4 |
| 20260902190511 | 31 | 14 | 0.0 | 9.7 | 0.00 | 0.00 | 0.00 | 24 | 1017.3 |
| 20260902190021 | 30 | 91 | 3.2 | 8.0 | 0.00 | 0.00 | 0.00 | 24 | 1017.5 |
| 20260902185512 | 30 | 351 | 1.6 | 9.7 | 0.00 | 0.00 | 0.00 | 25 | 1017.5 |
| 20260902185015 | 30 | 115 | 3.2 | 9.7 | 0.00 | 0.00 | 0.00 | 24 | 1017.6 |
| 20260902184517 | 30 | 87 | 3.2 | 9.7 | 0.00 | 0.00 | 0.00 | 24 | 1017.7 |
| 20260902184003 | 30 | 49 | 3.2 | 8.0 | 0.00 | 0.00 | 0.00 | 24 | 1017.8 |
| 20260902183507 | 30 | 109 | 1.6 | 6.4 | 0.00 | 0.00 | 0.00 | 26 | 1017.9 |
| 20260902183014 | 30 | 23 | 1.6 | 4.8 | 0.00 | 0.00 | 0.00 | 24 | 1018.2 |
| 20260902182513 | 30 | 106 | 1.6 | 6.4 | 0.00 | 0.00 | 0.00 | 26 | 1018.4 |
| 20260902182009 | 30 | 257 | 1.6 | 6.4 | 0.00 | 0.00 | 0.00 | 25 | 1018.5 |
| 20260902181517 | 30 | 187 | 1.6 | 9.7 | 0.00 | 0.00 | 0.00 | 26 | 1018.6 |
| 20260902181011 | 30 | 96 | 1.6 | 9.7 | 0.00 | 0.00 | 0.00 | 25 | 1018.7 |
| 20260902180511 | 30 | 59 | 1.6 | 9.7 | 0.00 | 0.00 | 0.00 | 25 | 1018.7 |
| 20260902180017 | 29 | 147 | 0.0 | 9.7 | 0.00 | 0.00 | 0.00 | 26 | 1018.7 |
| 20260902175511 | 29 | 78 | 1.6 | 9.7 | 0.00 | 0.00 | 0.00 | 26 | 1018.8 |
| 20260902175013 | 29 | 167 | 3.2 | 8.0 | 0.00 | 0.00 | 0.00 | 26 | 1019.0 |
| 20260902174520 | 29 | 172 | 1.6 | 6.4 | 0.00 | 0.00 | 0.00 | 27 | 1019.0 |
| 20260902174012 | 29 | 156 | 3.2 | 9.7 | 0.00 | 0.00 | 0.00 | 27 | 1019.0 |
| 20260902173514 | 28 | 197 | 3.2 | 9.7 | 0.00 | 0.00 | 0.00 | 28 | 1019.0 |
| 20260902173018 | 28 | 146 | 3.2 | 9.7 | 0.00 | 0.00 | 0.00 | 29 | 1019.0 |
| 20260902172508 | 28 | 26 | 1.6 | 11.3 | 0.00 | 0.00 | 0.00 | 28 | 1019.0 |
| 20260902172009 | 28 | 174 | 3.2 | 11.3 | 0.00 | 0.00 | 0.00 | 29 | 1019.0 |
| 20260902171514 | 28 | 80 | 0.0 | 9.7 | 0.00 | 0.00 | 0.00 | 29 | 1019.1 |
| 20260902171010 | 28 | 155 | 3.2 | 11.3 | 0.00 | 0.00 | 0.00 | 30 | 1019.2 |
| 20260902170511 | 28 | 125 | 1.6 | 11.3 | 0.00 | 0.00 | 0.00 | 30 | 1019.3 |
| 20260902170020 | 28 | 90 | 1.6 | 8.0 | 0.00 | 0.00 | 0.00 | 30 | 1019.4 |
| 20260902165511 | 28 | 112 | 3.2 | 6.4 | 0.00 | 0.00 | 0.00 | 29 | 1019.4 |
| 20260902165013 | 27 | 136 | 1.6 | 6.4 | 0.00 | 0.00 | 0.00 | 31 | 1019.5 |
| 20260902164512 | 27 | 128 | 1.6 | 9.7 | 0.00 | 0.00 | 0.00 | 31 | 1019.4 |
| 20260902164009 | 27 | 129 | 1.6 | 9.7 | 0.00 | 0.00 | 0.00 | 33 | 1019.6 |
| 20260902163511 | 27 | 209 | 0.0 | 11.3 | 0.00 | 0.00 | 0.00 | 32 | 1019.6 |
| 20260902163019 | 27 | 139 | 4.8 | 11.3 | 0.00 | 0.00 | 0.00 | 33 | 1019.6 |
| 20260902162512 | 27 | 129 | 1.6 | 11.3 | 0.00 | 0.00 | 0.00 | 33 | 1019.6 |
| 20260902162014 | 27 | 146 | 3.2 | 11.3 | 0.00 | 0.00 | 0.00 | 34 | 1019.5 |
| 20260902161533 | 26 | 158 | 1.6 | 11.3 | 0.00 | 0.00 | 0.00 | 35 | 1019.6 |
| 20260902161014 | 26 | 42 | 1.6 | 9.7 | 0.00 | 0.00 | 0.00 | 35 | 1019.6 |
| 20260902160508 | 26 | 154 | 1.6 | 9.7 | 0.00 | 0.00 | 0.00 | 35 | 1019.6 |
| 20260902160016 | 26 | 115 | 3.2 | 11.3 | 0.00 | 0.00 | 0.00 | 37 | 1019.5 |
| 20260902155513 | 25 | 129 | 3.2 | 11.3 | 0.00 | 0.00 | 0.00 | 35 | 1019.4 |
| 20260902155011 | 25 | 104 | 3.2 | 11.3 | 0.00 | 0.00 | 0.00 | 37 | 1019.5 |
| 20260902154533 | 25 | 116 | 1.6 | 6.4 | 0.00 | 0.00 | 0.00 | 36 | 1019.6 |
| 20260902154017 | 25 | 44 | 1.6 | 9.7 | 0.00 | 0.00 | 0.00 | 38 | 1019.5 |
| 20260902153513 | 25 | 9 | 3.2 | 9.7 | 0.00 | 0.00 | 0.00 | 38 | 1019.3 |
| 20260902153008 | 24 | 101 | 1.6 | 6.4 | 0.00 | 0.00 | 0.00 | 38 | 1019.4 |
| 20260902152508 | 24 | 97 | 1.6 | 6.4 | 0.00 | 0.00 | 0.00 | 38 | 1019.4 |
| 20260902152011 | 23 | 38 | 3.2 | 6.4 | 0.00 | 0.00 | 0.00 | 41 | 1019.3 |
| 20260902151525 | 23 | 98 | 1.6 | 8.0 | 0.00 | 0.00 | 0.00 | 41 | 1019.3 |
| 20260902151004 | 23 | 39 | 3.2 | 8.0 | 0.00 | 0.00 | 0.00 | 40 | 1019.3 |
| 20260902150504 | 22 | 52 | 3.2 | 8.0 | 0.00 | 0.00 | 0.00 | 41 | 1019.2 |
| 20260902150007 | 22 | 109 | 0.0 | 6.4 | 0.00 | 0.00 | 0.00 | 45 | 1019.2 |
| 20260902145504 | 22 | 279 | 1.6 | 4.8 | 0.00 | 0.00 | 0.00 | 49 | 1019.2 |
| 20260902145007 | 21 | 85 | 1.6 | 4.8 | 0.00 | 0.00 | 0.00 | 49 | 1019.1 |
| 20260902144520 | 21 | 344 | 1.6 | 4.8 | 0.00 | 0.00 | 0.00 | 49 | 1019.1 |
| 20260902144011 | 21 | 332 | 1.6 | 4.8 | 0.00 | 0.00 | 0.00 | 51 | 1019.2 |
| 20260902143513 | 20 | 336 | 1.6 | 3.2 | 0.00 | 0.00 | 0.00 | 51 | 1019.0 |
| 20260902143003 | 20 | 5 | 0.0 | 3.2 | 0.00 | 0.00 | 0.00 | 52 | 1019.1 |
| 20260902142503 | 18 | 22 | 0.0 | 3.2 | 0.00 | 0.00 | 0.00 | 54 | 1019.1 |
| 20260902142003 | 18 | 94 | 0.0 | 3.2 | 0.00 | 0.00 | 0.00 | 55 | 1019.1 |
| 20260902141508 | 18 | 234 | 0.0 | 3.2 | 0.00 | 0.00 | 0.00 | 55 | 1019.0 |
| 20260902141007 | 17 | 53 | 1.6 | 4.8 | 0.00 | 0.00 | 0.00 | 57 | 1019.1 |
| 20260902140507 | 17 | 59 | 1.6 | 4.8 | 0.00 | 0.00 | 0.00 | 59 | 1019.0 |
| 20260902140019 | 17 | 98 | 1.6 | 4.8 | 0.00 | 0.00 | 0.00 | 59 | 1019.1 |
| 20260902135514 | 17 | 57 | 1.6 | 4.8 | 0.00 | 0.00 | 0.00 | 58 | 1019.2 |
| 20260902135003 | 16 | 38 | 3.2 | 4.8 | 0.00 | 0.00 | 0.00 | 61 | 1019.1 |
| 20260902134509 | 16 | 182 | 0.0 | 4.8 | 0.00 | 0.00 | 0.00 | 58 | 1019.1 |
| 20260902134004 | 16 | 182 | 0.0 | 4.8 | 0.00 | 0.00 | 0.00 | 59 | 1019.1 |
| 20260902133506 | 16 | 5 | 0.0 | 3.2 | 0.00 | 0.00 | 0.00 | 60 | 1019.1 |
| 20260902133011 | 15 | 348 | 0.0 | 3.2 | 0.00 | 0.00 | 0.00 | 60 | 1019.0 |
| 20260902132511 | 15 | 338 | 0.0 | 3.2 | 0.00 | 0.00 | 0.00 | 61 | 1019.0 |
| 20260902132012 | 15 | 283 | 0.0 | 4.8 | 0.00 | 0.00 | 0.00 | 60 | 1018.9 |
| 20260902131526 | 14 | 232 | 1.6 | 4.8 | 0.00 | 0.00 | 0.00 | 59 | 1018.8 |
| 20260902131004 | 14 | 188 | 0.0 | 3.2 | 0.00 | 0.00 | 0.00 | 63 | 1018.8 |
| 20260902130504 | 13 | 219 | 0.0 | 3.2 | 0.00 | 0.00 | 0.00 | 64 | 1018.7 |
| 20260902130006 | 13 | 254 | 0.0 | 3.2 | 0.00 | 0.00 | 0.00 | 65 | 1018.7 |
| 20260902125507 | 13 | 290 | 0.0 | 3.2 | 0.00 | 0.00 | 0.00 | 66 | 1018.7 |
| 20260902125007 | 13 | 283 | 0.0 | 3.2 | 0.00 | 0.00 | 0.00 | 65 | 1018.6 |
| 20260902124517 | 13 | 227 | 0.0 | 3.2 | 0.00 | 0.00 | 0.00 | 64 | 1018.6 |
| 20260902124010 | 13 | 232 | 0.0 | 3.2 | 0.00 | 0.00 | 0.00 | 65 | 1018.7 |
| 20260902123513 | 13 | 243 | 0.0 | 3.2 | 0.00 | 0.00 | 0.00 | 65 | 1018.8 |
| 20260902123004 | 14 | 220 | 0.0 | 3.2 | 0.00 | 0.00 | 0.00 | 63 | 1018.7 |
| 20260902122504 | 14 | 213 | 0.0 | 3.2 | 0.00 | 0.00 | 0.00 | 62 | 1018.7 |
| 20260902122004 | 15 | 187 | 0.0 | 3.2 | 0.00 | 0.00 | 0.00 | 61 | 1018.7 |
| 20260902121511 | 15 | 190 | 0.0 | 3.2 | 0.00 | 0.00 | 0.00 | 58 | 1018.7 |
| 20260902121009 | 15 | 360 | 0.0 | 3.2 | 0.00 | 0.00 | 0.00 | 57 | 1018.6 |
| 20260902120513 | 15 | 360 | 0.0 | 3.2 | 0.00 | 0.00 | 0.00 | 58 | 1018.7 |
| 20260902120029 | 15 | 360 | 0.0 | 3.2 | 0.00 | 0.00 | 0.00 | 56 | 1018.6 |
| 20260902115516 | 16 | 352 | 0.0 | 3.2 | 0.00 | 0.00 | 0.00 | 54 | 1018.4 |
| 20260902115003 | 16 | 352 | 0.0 | 3.2 | 0.00 | 0.00 | 0.00 | 56 | 1018.4 |
| 20260902114507 | 16 | 352 | 0.0 | 3.2 | 0.00 | 0.00 | 0.00 | 54 | 1018.4 |
| 20260902114010 | 15 | 352 | 0.0 | 3.2 | 0.00 | 0.00 | 0.00 | 54 | 1018.4 |
| 20260902113506 | 15 | 336 | 0.0 | 3.2 | 0.00 | 0.00 | 0.00 | 54 | 1018.4 |
| 20260902113018 | 15 | 336 | 0.0 | 3.2 | 0.00 | 0.00 | 0.00 | 56 | 1018.3 |
| 20260902112510 | 15 | 240 | 0.0 | 3.2 | 0.00 | 0.00 | 0.00 | 56 | 1018.4 |
| 20260902112015 | 15 | 218 | 0.0 | 3.2 | 0.00 | 0.00 | 0.00 | 59 | 1018.4 |
| 20260902111526 | 15 | 244 | 0.0 | 3.2 | 0.00 | 0.00 | 0.00 | 60 | 1018.4 |
| 20260902111002 | 15 | 250 | 0.0 | 3.2 | 0.00 | 0.00 | 0.00 | 60 | 1018.4 |
| 20260902110506 | 15 | 210 | 0.0 | 3.2 | 0.00 | 0.00 | 0.00 | 58 | 1018.4 |
| 20260902110011 | 15 | 194 | 1.6 | 3.2 | 0.00 | 0.00 | 0.00 | 58 | 1018.5 |
| 20260902105507 | 15 | 189 | 1.6 | 3.2 | 0.00 | 0.00 | 0.00 | 57 | 1018.5 |
| 20260902105015 | 16 | 161 | 0.0 | 3.2 | 0.00 | 0.00 | 0.00 | 56 | 1018.5 |
| 20260902104532 | 16 | 71 | 0.0 | 3.2 | 0.00 | 0.00 | 0.00 | 56 | 1018.5 |
| 20260902104015 | 16 | 100 | 0.0 | 3.2 | 0.00 | 0.00 | 0.00 | 54 | 1018.5 |
| 20260902103514 | 16 | 90 | 0.0 | 3.2 | 0.00 | 0.00 | 0.00 | 54 | 1018.5 |
| 20260902103004 | 16 | 175 | 0.0 | 4.8 | 0.00 | 0.00 | 0.00 | 53 | 1018.5 |
| 20260902102506 | 16 | 232 | 1.6 | 4.8 | 0.00 | 0.00 | 0.00 | 53 | 1018.5 |
| 20260902102006 | 16 | 223 | 1.6 | 4.8 | 0.00 | 0.00 | 0.00 | 53 | 1018.4 |
| 20260902101515 | 16 | 202 | 1.6 | 4.8 | 0.00 | 0.00 | 0.00 | 56 | 1018.4 |
| 20260902101011 | 15 | 202 | 1.6 | 4.8 | 0.00 | 0.00 | 0.00 | 58 | 1018.4 |
| 20260902100513 | 16 | 224 | 0.0 | 4.8 | 0.00 | 0.00 | 0.00 | 59 | 1018.3 |
| 20260902100027 | 16 | 167 | 1.6 | 4.8 | 0.00 | 0.00 | 0.00 | 57 | 1018.3 |
| 20260902095518 | 16 | 200 | 0.0 | 3.2 | 0.00 | 0.00 | 0.00 | 57 | 1018.4 |
| 20260902095003 | 16 | 200 | 0.0 | 3.2 | 0.00 | 0.00 | 0.00 | 56 | 1018.3 |
| 20260902094506 | 17 | 200 | 0.0 | 3.2 | 0.00 | 0.00 | 0.00 | 53 | 1018.4 |
| 20260902094007 | 17 | 200 | 0.0 | 3.2 | 0.00 | 0.00 | 0.00 | 52 | 1018.3 |
| 20260902093510 | 17 | 200 | 0.0 | 3.2 | 0.00 | 0.00 | 0.00 | 51 | 1018.3 |
| 20260902090014 | 17 | 219 | 0.0 | 6.4 | 0.00 | 0.00 | 0.00 | 50 | 1018.4 |
| 20260902085513 | 17 | 205 | 1.6 | 3.2 | 0.00 | 0.00 | 0.00 | 52 | 1018.4 |
| 20260902085011 | 17 | 62 | 0.0 | 3.2 | 0.00 | 0.00 | 0.00 | 55 | 1018.4 |
| 20260902084530 | 17 | 46 | 1.6 | 3.2 | 0.00 | 0.00 | 0.00 | 55 | 1018.4 |
| 20260902084017 | 17 | 84 | 0.0 | 3.2 | 0.00 | 0.00 | 0.00 | 54 | 1018.4 |
| 20260902083521 | 17 | 167 | 0.0 | 3.2 | 0.00 | 0.00 | 0.00 | 54 | 1018.3 |
| 20260902083011 | 17 | 252 | 0.0 | 3.2 | 0.00 | 0.00 | 0.00 | 53 | 1018.3 |
| 20260902082507 | 18 | 252 | 0.0 | 3.2 | 0.00 | 0.00 | 0.00 | 51 | 1018.3 |
| 20260902082010 | 18 | 253 | 0.0 | 3.2 | 0.00 | 0.00 | 0.00 | 50 | 1018.3 |
| 20260902081521 | 18 | 257 | 0.0 | 3.2 | 0.00 | 0.00 | 0.00 | 48 | 1018.3 |
| 20260902081010 | 19 | 257 | 0.0 | 3.2 | 0.00 | 0.00 | 0.00 | 46 | 1018.3 |
| 20260902080514 | 20 | 257 | 0.0 | 1.6 | 0.00 | 0.00 | 0.00 | 44 | 1018.3 |
| 20260902080008 | 20 | 257 | 0.0 | 3.2 | 0.00 | 0.00 | 0.00 | 43 | 1018.2 |
| 20260902075503 | 20 | 257 | 0.0 | 3.2 | 0.00 | 0.00 | 0.00 | 41 | 1018.3 |
| 20260902075004 | 21 | 317 | 0.0 | 3.2 | 0.00 | 0.00 | 0.00 | 40 | 1018.3 |
| 20260902074511 | 21 | 342 | 0.0 | 9.7 | 0.00 | 0.00 | 0.00 | 39 | 1018.4 |
| 20260902074008 | 21 | 276 | 1.6 | 9.7 | 0.00 | 0.00 | 0.00 | 39 | 1018.3 |
| 20260902073511 | 21 | 236 | 0.0 | 4.8 | 0.00 | 0.00 | 0.00 | 39 | 1018.3 |
| 20260902073026 | 21 | 269 | 1.6 | 8.0 | 0.00 | 0.00 | 0.00 | 39 | 1018.2 |
| 20260902072515 | 21 | 171 | 1.6 | 8.0 | 0.00 | 0.00 | 0.00 | 39 | 1018.2 |
| 20260902072007 | 21 | 250 | 1.6 | 6.4 | 0.00 | 0.00 | 0.00 | 39 | 1018.2 |
| 20260902071504 | 21 | 262 | 3.2 | 9.7 | 0.00 | 0.00 | 0.00 | 39 | 1018.3 |
| 20260902071004 | 21 | 255 | 1.6 | 9.7 | 0.00 | 0.00 | 0.00 | 39 | 1018.3 |
| 20260902070505 | 21 | 274 | 1.6 | 8.0 | 0.00 | 0.00 | 0.00 | 39 | 1018.3 |
| 20260902070018 | 21 | 254 | 1.6 | 6.4 | 0.00 | 0.00 | 0.00 | 39 | 1018.3 |
| 20260902065511 | 21 | 262 | 1.6 | 4.8 | 0.00 | 0.00 | 0.00 | 39 | 1018.3 |
| 20260902065014 | 21 | 263 | 1.6 | 4.8 | 0.00 | 0.00 | 0.00 | 39 | 1018.3 |
| 20260902064528 | 21 | 246 | 1.6 | 4.8 | 0.00 | 0.00 | 0.00 | 39 | 1018.4 |